,,,PA_Meas_PMT16A,,PR_Meas_QMR101_102,,RH_Meas_QMH101,,SR_Meas_QMS101,,TA_Meas_QMH101,,GenWind,,GenWind,
date,time,status,PA,status,PR,status,RH,status,SR,status,TA,status,DirAvg,status,SpdAvg,
2010-01-22, 00:00:04,VALID,1005.8,VALID,0,VALID,78.5546,VALID,0,VALID,25.1229,VALID,357,VALID,3.04531,
2010-01-22, 00:01:04,VALID,1005.8,VALID,0,VALID,78.8216,VALID,0,VALID,25.1248,VALID,356,VALID,1.66523,
2010-01-22, 00:02:04,VALID,1005.78,VALID,0,VALID,78.5012,VALID,0,VALID,25.1248,VALID,344,VALID,1.69727,
2010-01-22, 00:03:04,VALID,1005.78,VALID,0,VALID,78.7758,VALID,0,VALID,25.1248,VALID,5,VALID,2.42148,
2010-01-22, 00:04:04,VALID,1005.8,VALID,0,VALID,78.5393,VALID,0,VALID,25.1248,VALID,349,VALID,2.14375,
2010-01-22, 00:05:04,VALID,1005.79,VALID,0,VALID,78.814,VALID,0,VALID,25.1248,VALID,352,VALID,1.70547,
2010-01-22, 00:06:04,VALID,1005.8,VALID,0,VALID,78.7224,VALID,0,VALID,25.0839,VALID,352,VALID,1.76641,
2010-01-22, 00:07:04,VALID,1005.84,VALID,0,VALID,78.9131,VALID,0,VALID,25.0858,VALID,354,VALID,1.17461,
2010-01-22, 00:08:04,VALID,1005.79,VALID,0,VALID,78.7529,VALID,0,VALID,25.045,VALID,355,VALID,1.76406,
2010-01-22, 00:09:04,VALID,1005.79,VALID,0,VALID,78.9208,VALID,0,VALID,25.045,VALID,351,VALID,1.79297,
2010-01-22, 00:10:04,VALID,1005.78,VALID,0,VALID,79.0581,VALID,0,VALID,25.045,VALID,286,VALID,1.07813,
2010-01-22, 00:11:04,VALID,1005.69,VALID,0,VALID,78.9513,VALID,0,VALID,25.0255,VALID,354,VALID,0.985156,
2010-01-22, 00:12:04,VALID,1005.72,VALID,0,VALID,78.5622,VALID,0,VALID,25.0469,VALID,356,VALID,2.83398,
2010-01-22, 00:13:04,VALID,1005.7,VALID,0,VALID,78.5851,VALID,0,VALID,25.0644,VALID,358,VALID,2.49688,
2010-01-22, 00:14:04,VALID,1005.69,VALID,0,VALID,78.4936,VALID,0,VALID,25.1053,VALID,354,VALID,2.13594,
2010-01-22, 00:15:04,VALID,1005.66,VALID,0,VALID,78.608,VALID,0,VALID,25.0839,VALID,358,VALID,2.05977,
2010-01-22, 00:16:04,VALID,1005.66,VALID,0,VALID,78.8216,VALID,0,VALID,25.0644,VALID,357,VALID,1.50742,
2010-01-22, 00:17:04,VALID,1005.65,VALID,0,VALID,78.7072,VALID,0,VALID,25.045,VALID,343,VALID,1.19297,
2010-01-22, 00:18:04,VALID,1005.63,VALID,0,VALID,78.5241,VALID,0,VALID,25.0255,VALID,345,VALID,2.5875,
2010-01-22, 00:19:04,VALID,1005.66,VALID,0,VALID,78.8216,VALID,0,VALID,25.0663,VALID,351,VALID,1.2832,
2010-01-22, 00:20:04,VALID,1005.62,VALID,0,VALID,78.8445,VALID,0,VALID,25.0663,VALID,8,VALID,1.0543,
2010-01-22, 00:21:04,VALID,1005.6,VALID,0,VALID,78.6156,VALID,0,VALID,25.0469,VALID,348,VALID,2.10117,
2010-01-22, 00:22:04,VALID,1005.61,VALID,0,VALID,78.5546,VALID,0,VALID,25.0469,VALID,357,VALID,2.14102,
2010-01-22, 00:23:04,VALID,1005.58,VALID,0,VALID,78.463,VALID,0,VALID,25.0255,VALID,346,VALID,1.89609,
2010-01-22, 00:24:04,VALID,1005.59,VALID,0,VALID,78.4401,VALID,0,VALID,25.0663,VALID,327,VALID,0.814453,
2010-01-22, 00:25:04,VALID,1005.58,VALID,0,VALID,78.4783,VALID,0,VALID,25.0644,VALID,13,VALID,1.73984,
2010-01-22, 00:26:04,VALID,1005.54,VALID,0,VALID,77.868,VALID,0,VALID,25.0839,VALID,352,VALID,2.02539,
2010-01-22, 00:27:04,VALID,1005.54,VALID,0,VALID,77.5781,VALID,0,VALID,25.1229,VALID,355,VALID,2.09766,
2010-01-22, 00:28:04,VALID,1005.55,VALID,0,VALID,77.6391,VALID,0,VALID,25.1618,VALID,350,VALID,1.68984,
2010-01-22, 00:29:04,VALID,1005.55,VALID,0,VALID,77.4713,VALID,0,VALID,25.2221,VALID,353,VALID,2.31406,
2010-01-22, 00:30:04,VALID,1005.56,VALID,0,VALID,77.3416,VALID,0,VALID,25.2202,VALID,350,VALID,2.6418,
2010-01-22, 00:31:04,VALID,1005.62,VALID,0,VALID,77.4102,VALID,0,VALID,25.2202,VALID,360,VALID,2.71992,
2010-01-22, 00:32:04,VALID,1005.57,VALID,0,VALID,77.1432,VALID,0,VALID,25.2397,VALID,9,VALID,2.5625,
2010-01-22, 00:33:04,VALID,1005.59,VALID,0,VALID,77.1127,VALID,0,VALID,25.2611,VALID,358,VALID,2.16875,
2010-01-22, 00:34:04,VALID,1005.56,VALID,0,VALID,77.0441,VALID,0,VALID,25.2806,VALID,351,VALID,2.24844,
2010-01-22, 00:35:04,VALID,1005.55,VALID,0,VALID,77.2195,VALID,0,VALID,25.2592,VALID,19,VALID,2.68398,
2010-01-22, 00:36:04,VALID,1005.54,VALID,0,VALID,77.4331,VALID,0,VALID,25.2397,VALID,351,VALID,1.85625,
2010-01-22, 00:37:04,VALID,1005.55,VALID,0,VALID,77.395,VALID,0,VALID,25.2611,VALID,356,VALID,1.83633,
2010-01-22, 00:38:04,VALID,1005.53,VALID,0,VALID,77.5781,VALID,0,VALID,25.2202,VALID,8,VALID,1.8793,
2010-01-22, 00:39:04,VALID,1005.55,VALID,0,VALID,77.6391,VALID,0,VALID,25.2221,VALID,357,VALID,1.45938,
2010-01-22, 00:40:04,VALID,1005.56,VALID,0,VALID,77.2424,VALID,0,VALID,25.2202,VALID,356,VALID,2.35625,
2010-01-22, 00:41:04,VALID,1005.58,VALID,0,VALID,77.4865,VALID,0,VALID,25.2202,VALID,356,VALID,2.31211,
2010-01-22, 00:42:04,VALID,1005.6,VALID,0,VALID,77.5552,VALID,0,VALID,25.2611,VALID,354,VALID,1.31758,
2010-01-22, 00:43:04,VALID,1005.55,VALID,0,VALID,77.5857,VALID,0,VALID,25.2416,VALID,8,VALID,1.08906,
2010-01-22, 00:44:04,VALID,1005.53,VALID,0,VALID,77.4408,VALID,0,VALID,25.2416,VALID,354,VALID,1.46836,
2010-01-22, 00:45:04,VALID,1005.52,VALID,0,VALID,77.4637,VALID,0,VALID,25.2416,VALID,3,VALID,2.33398,
2010-01-22, 00:46:04,VALID,1005.47,VALID,0,VALID,77.6849,VALID,0,VALID,25.2416,VALID,10,VALID,1.8832,
2010-01-22, 00:47:04,VALID,1005.49,VALID,0,VALID,77.7535,VALID,0,VALID,25.2221,VALID,350,VALID,1.29688,
2010-01-22, 00:48:04,VALID,1005.45,VALID,0,VALID,77.7841,VALID,0,VALID,25.2007,VALID,359,VALID,2.00781,
2010-01-22, 00:49:04,VALID,1005.43,VALID,0,VALID,77.7383,VALID,0,VALID,25.2221,VALID,360,VALID,2.18789,
2010-01-22, 00:50:04,VALID,1005.43,VALID,0,VALID,77.9061,VALID,0,VALID,25.1813,VALID,5,VALID,2.20078,
2010-01-22, 00:51:04,VALID,1005.45,VALID,0,VALID,77.7383,VALID,0,VALID,25.2027,VALID,357,VALID,2.36367,
2010-01-22, 00:52:04,VALID,1005.45,VALID,0,VALID,77.5018,VALID,0,VALID,25.2202,VALID,346,VALID,2.14102,
2010-01-22, 00:53:04,VALID,1005.43,VALID,0,VALID,77.5857,VALID,0,VALID,25.2397,VALID,357,VALID,1.73047,
2010-01-22, 00:54:04,VALID,1005.43,VALID,0,VALID,77.5705,VALID,0,VALID,25.2202,VALID,342,VALID,2.88945,
2010-01-22, 00:55:04,VALID,1005.38,VALID,0,VALID,77.8222,VALID,0,VALID,25.2202,VALID,2,VALID,2.10039,
2010-01-22, 00:56:04,VALID,1005.34,VALID,0,VALID,77.8222,VALID,0,VALID,25.2007,VALID,19,VALID,2.07695,
2010-01-22, 00:57:04,VALID,1005.33,VALID,0,VALID,77.7688,VALID,0,VALID,25.2007,VALID,352,VALID,1.84766,
2010-01-22, 00:58:04,VALID,1005.32,VALID,0,VALID,77.9443,VALID,0,VALID,25.1813,VALID,2,VALID,1.36836,
2010-01-22, 00:59:04,VALID,1005.31,VALID,0,VALID,77.9519,VALID,0,VALID,25.2027,VALID,356,VALID,1.75898,
2010-01-22, 01:00:04,VALID,1005.27,VALID,0,VALID,78.074,VALID,0,VALID,25.1618,VALID,356,VALID,1.61953,
2010-01-22, 01:01:04,VALID,1005.23,VALID,0,VALID,78.0511,VALID,0,VALID,25.1637,VALID,356,VALID,2.14023,
2010-01-22, 01:02:04,VALID,1005.2,VALID,0,VALID,78.1274,VALID,0,VALID,25.1637,VALID,359,VALID,1.81211,
2010-01-22, 01:03:04,VALID,1005.21,VALID,0,VALID,78.2494,VALID,0,VALID,25.1423,VALID,350,VALID,2.33828,
2010-01-22, 01:04:04,VALID,1005.18,VALID,0,VALID,78.2037,VALID,0,VALID,25.1637,VALID,360,VALID,2.10703,
2010-01-22, 01:05:04,VALID,1005.13,VALID,0,VALID,78.4936,VALID,0,VALID,25.1637,VALID,359,VALID,1.48164,
2010-01-22, 01:06:04,VALID,1005.14,VALID,0,VALID,78.463,VALID,0,VALID,25.1229,VALID,353,VALID,2.13008,
2010-01-22, 01:07:04,VALID,1005.1,VALID,0,VALID,78.4478,VALID,0,VALID,25.1442,VALID,353,VALID,1.83047,
2010-01-22, 01:08:04,VALID,1005.08,VALID,0,VALID,78.2799,VALID,0,VALID,25.1423,VALID,358,VALID,2.09453,
2010-01-22, 01:09:04,VALID,1005.11,VALID,0,VALID,78.1808,VALID,0,VALID,25.1832,VALID,352,VALID,1.68516,
2010-01-22, 01:10:04,VALID,1005.08,VALID,0,VALID,78.1503,VALID,0,VALID,25.1832,VALID,356,VALID,2.01836,
2010-01-22, 01:11:04,VALID,1005.09,VALID,0,VALID,78.0892,VALID,0,VALID,25.1618,VALID,351,VALID,2.16094,
2010-01-22, 01:12:04,VALID,1005.07,VALID,0,VALID,77.9061,VALID,0,VALID,25.2027,VALID,348,VALID,2.18984,
2010-01-22, 01:13:04,VALID,1005.06,VALID,0,VALID,78.0053,VALID,0,VALID,25.2007,VALID,14,VALID,1.72109,
2010-01-22, 01:14:04,VALID,1005.06,VALID,0,VALID,78.0053,VALID,0,VALID,25.2202,VALID,350,VALID,1.5293,
2010-01-22, 01:15:04,VALID,1005.05,VALID,0,VALID,78.0129,VALID,0,VALID,25.2416,VALID,360,VALID,1.6,
2010-01-22, 01:16:04,VALID,1005.08,VALID,0,VALID,77.8298,VALID,0,VALID,25.2202,VALID,351,VALID,2.08555,
2010-01-22, 01:17:04,VALID,1005.04,VALID,0,VALID,77.8222,VALID,0,VALID,25.2611,VALID,334,VALID,1.43164,
2010-01-22, 01:18:04,VALID,1005.08,VALID,0,VALID,77.9595,VALID,0,VALID,25.2397,VALID,348,VALID,1.55977,
2010-01-22, 01:19:04,VALID,1005.09,VALID,0,VALID,78.4096,VALID,0,VALID,25.2202,VALID,352,VALID,1.35898,
2010-01-22, 01:20:04,VALID,1005.07,VALID,0,VALID,78.3944,VALID,0,VALID,25.1813,VALID,328,VALID,1.78125,
2010-01-22, 01:21:04,VALID,1005.1,VALID,0,VALID,78.608,VALID,0,VALID,25.1813,VALID,353,VALID,1.5957,
2010-01-22, 01:22:04,VALID,1005.12,VALID,0,VALID,78.5241,VALID,0,VALID,25.1813,VALID,359,VALID,2.10195,
2010-01-22, 01:23:04,VALID,1005.09,VALID,0,VALID,78.6766,VALID,0,VALID,25.1813,VALID,353,VALID,1.22344,
2010-01-22, 01:24:04,VALID,1005.08,VALID,0,VALID,78.5622,VALID,0,VALID,25.2007,VALID,354,VALID,1.96719,
2010-01-22, 01:25:04,VALID,1005.08,VALID,0,VALID,78.5317,VALID,0,VALID,25.2007,VALID,358,VALID,1.71719,
2010-01-22, 01:26:04,VALID,1005.09,VALID,0,VALID,78.4554,VALID,0,VALID,25.2221,VALID,344,VALID,1.3082,
2010-01-22, 01:27:04,VALID,1005.08,VALID,0,VALID,78.6538,VALID,0,VALID,25.2397,VALID,358,VALID,1.78047,
2010-01-22, 01:28:04,VALID,1005.1,VALID,0,VALID,78.669,VALID,0,VALID,25.2202,VALID,4,VALID,1.06875,
2010-01-22, 01:29:04,VALID,1005.04,VALID,0,VALID,78.3181,VALID,0,VALID,25.2397,VALID,352,VALID,2.47813,
2010-01-22, 01:30:04,VALID,1005.03,VALID,0,VALID,78.3639,VALID,0,VALID,25.2592,VALID,358,VALID,1.51719,
2010-01-22, 01:31:04,VALID,1005.02,VALID,0,VALID,78.4554,VALID,0,VALID,25.2592,VALID,355,VALID,1.83672,
2010-01-22, 01:32:04,VALID,1005.04,VALID,0,VALID,78.4325,VALID,0,VALID,25.2592,VALID,359,VALID,1.70234,
2010-01-22, 01:33:04,VALID,1005.02,VALID,0,VALID,78.2418,VALID,0,VALID,25.2592,VALID,356,VALID,1.42344,
2010-01-22, 01:34:04,VALID,1005,VALID,0,VALID,78.3867,VALID,0,VALID,25.2806,VALID,356,VALID,1.55,
2010-01-22, 01:35:04,VALID,1005.01,VALID,0,VALID,78.2799,VALID,0,VALID,25.2592,VALID,335,VALID,1.60703,
2010-01-22, 01:36:04,VALID,1004.98,VALID,0,VALID,78.4783,VALID,0,VALID,25.2806,VALID,345,VALID,1.45508,
2010-01-22, 01:37:04,VALID,1004.96,VALID,0,VALID,78.5317,VALID,0,VALID,25.2806,VALID,357,VALID,1.81016,
2010-01-22, 01:38:04,VALID,1004.94,VALID,0,VALID,78.6614,VALID,0,VALID,25.2981,VALID,352,VALID,1.25234,
2010-01-22, 01:39:04,VALID,1004.96,VALID,0,VALID,78.6232,VALID,0,VALID,25.3,VALID,350,VALID,1.34844,
2010-01-22, 01:40:04,VALID,1004.94,VALID,0,VALID,78.73,VALID,0,VALID,25.2806,VALID,343,VALID,0.550781,
2010-01-22, 01:41:04,VALID,1004.93,VALID,0,VALID,78.5622,VALID,0,VALID,25.2806,VALID,359,VALID,2.06445,
2010-01-22, 01:42:04,VALID,1004.91,VALID,0,VALID,78.8216,VALID,0,VALID,25.2611,VALID,16,VALID,0.519531,
2010-01-22, 01:43:04,VALID,1004.91,VALID,0,VALID,78.6156,VALID,0,VALID,25.2611,VALID,341,VALID,1.58828,
2010-01-22, 01:44:04,VALID,1004.9,VALID,0,VALID,78.7987,VALID,0,VALID,25.2611,VALID,265,VALID,0.389453,
2010-01-22, 01:45:04,VALID,1004.89,VALID,0,VALID,79.0047,VALID,0,VALID,25.2202,VALID,1,VALID,0.636719,
2010-01-22, 01:46:04,VALID,1004.91,VALID,0,VALID,78.8445,VALID,0,VALID,25.2416,VALID,290,VALID,0.794922,
2010-01-22, 01:47:04,VALID,1004.91,VALID,0,VALID,79.0123,VALID,0,VALID,25.2397,VALID,219,VALID,0.389453,
2010-01-22, 01:48:04,VALID,1004.88,VALID,0,VALID,78.8903,VALID,0,VALID,25.2416,VALID,291,VALID,0.841797,
2010-01-22, 01:49:04,VALID,1004.91,VALID,0,VALID,78.7987,VALID,0,VALID,25.2416,VALID,276,VALID,1.49375,
2010-01-22, 01:50:04,VALID,1004.89,VALID,0,VALID,79.0505,VALID,0,VALID,25.2416,VALID,319,VALID,0.521484,
2010-01-22, 01:51:04,VALID,1004.92,VALID,0,VALID,78.6232,VALID,0,VALID,25.2416,VALID,297,VALID,2.19727,
2010-01-22, 01:52:04,VALID,1004.88,VALID,0,VALID,78.6232,VALID,0,VALID,25.2611,VALID,284,VALID,0.940625,
2010-01-22, 01:53:04,VALID,1004.87,VALID,0,VALID,78.8292,VALID,0,VALID,25.2202,VALID,303,VALID,0.676172,
2010-01-22, 01:54:04,VALID,1004.88,VALID,0,VALID,79.0581,VALID,0,VALID,25.2221,VALID,275,VALID,0.88125,
2010-01-22, 01:55:04,VALID,1004.89,VALID,0,VALID,78.936,VALID,0,VALID,25.2027,VALID,288,VALID,1.43086,
2010-01-22, 01:56:04,VALID,1004.88,VALID,0,VALID,79.1878,VALID,0,VALID,25.1832,VALID,326,VALID,0.524219,
2010-01-22, 01:57:04,VALID,1004.88,VALID,0,VALID,79.1039,VALID,0,VALID,25.1832,VALID,268,VALID,1.40625,
2010-01-22, 01:58:04,VALID,1004.89,VALID,0,VALID,79.348,VALID,0,VALID,25.1423,VALID,283,VALID,1.17227,
2010-01-22, 01:59:04,VALID,1004.88,VALID,0,VALID,79.1954,VALID,0,VALID,25.1637,VALID,344,VALID,2.41797,
2010-01-22, 02:00:04,VALID,1004.91,VALID,0,VALID,79.1954,VALID,0,VALID,25.1618,VALID,295,VALID,1.28164,
2010-01-22, 02:01:04,VALID,1004.93,VALID,0,VALID,79.2793,VALID,0,VALID,25.1637,VALID,304,VALID,0.817578,
2010-01-22, 02:02:04,VALID,1004.9,VALID,0,VALID,79.2946,VALID,0,VALID,25.1618,VALID,330,VALID,0.930469,
2010-01-22, 02:03:04,VALID,1004.9,VALID,0,VALID,79.4243,VALID,0,VALID,25.1423,VALID,321,VALID,0.821094,
2010-01-22, 02:04:04,VALID,1004.9,VALID,0,VALID,79.4929,VALID,0,VALID,25.1637,VALID,328,VALID,0.0308594,
2010-01-22, 02:05:04,VALID,1004.9,VALID,0,VALID,79.554,VALID,0,VALID,25.1442,VALID,316,VALID,0.259766,
2010-01-22, 02:06:04,VALID,1004.88,VALID,0,VALID,79.8286,VALID,0.100563,VALID,25.1053,VALID,298,VALID,0.907031,
2010-01-22, 02:07:04,VALID,1004.91,VALID,0,VALID,79.7981,VALID,0,VALID,25.0839,VALID,298,VALID,0.545313,
2010-01-22, 02:08:04,VALID,1004.93,VALID,0,VALID,79.9049,VALID,0,VALID,25.0858,VALID,307,VALID,0.680078,
2010-01-22, 02:09:04,VALID,1004.92,VALID,0,VALID,79.8896,VALID,0,VALID,25.045,VALID,268,VALID,0.435156,
2010-01-22, 02:10:04,VALID,1004.92,VALID,0,VALID,79.9964,VALID,0,VALID,25.045,VALID,332,VALID,0.696484,
2010-01-22, 02:11:04,VALID,1004.91,VALID,0,VALID,80.3016,VALID,0,VALID,25.0255,VALID,336,VALID,0.496875,
2010-01-22, 02:12:04,VALID,1004.94,VALID,0,VALID,80.2863,VALID,0,VALID,25.0255,VALID,303,VALID,0.251172,
2010-01-22, 02:13:04,VALID,1004.94,VALID,0,VALID,80.2253,VALID,0,VALID,25.0274,VALID,343,VALID,0.619531,
2010-01-22, 02:14:04,VALID,1004.93,VALID,0,VALID,80.4008,VALID,0,VALID,24.9866,VALID,339,VALID,0.551953,
2010-01-22, 02:15:04,VALID,1004.91,VALID,0,VALID,80.5762,VALID,0,VALID,24.9885,VALID,349,VALID,0.512891,
2010-01-22, 02:16:04,VALID,1004.91,VALID,0,VALID,80.9043,VALID,0,VALID,24.9885,VALID,278,VALID,0.332422,
2010-01-22, 02:17:04,VALID,1004.95,VALID,0,VALID,80.5381,VALID,0,VALID,24.969,VALID,277,VALID,0.655469,
2010-01-22, 02:18:04,VALID,1004.93,VALID,0,VALID,80.8814,VALID,0,VALID,24.9885,VALID,280,VALID,0.167187,
2010-01-22, 02:19:04,VALID,1004.93,VALID,0,VALID,80.9348,VALID,0,VALID,24.969,VALID,308,VALID,0.516797,
2010-01-22, 02:20:04,VALID,1004.93,VALID,0,VALID,80.6602,VALID,0,VALID,24.9671,VALID,340,VALID,1.36328,
2010-01-22, 02:21:04,VALID,1004.9,VALID,0,VALID,80.7136,VALID,0,VALID,24.9866,VALID,338,VALID,0.579297,
2010-01-22, 02:22:04,VALID,1004.9,VALID,0,VALID,80.5762,VALID,0,VALID,25.0079,VALID,346,VALID,0.767969,
2010-01-22, 02:23:04,VALID,1004.92,VALID,0,VALID,80.8204,VALID,0,VALID,25.0274,VALID,349,VALID,0.302734,
2010-01-22, 02:24:04,VALID,1004.9,VALID,0,VALID,80.4694,VALID,0,VALID,25.0274,VALID,340,VALID,1.12383,
2010-01-22, 02:25:04,VALID,1004.92,VALID,0,VALID,80.7136,VALID,0,VALID,25.0469,VALID,338,VALID,0.467969,
2010-01-22, 02:26:04,VALID,1004.86,VALID,0,VALID,80.7288,VALID,0,VALID,25.0469,VALID,291,VALID,0.814062,
2010-01-22, 02:27:04,VALID,1004.88,VALID,0,VALID,80.5305,VALID,0,VALID,25.0469,VALID,303,VALID,0.489844,
2010-01-22, 02:28:04,VALID,1004.87,VALID,0,VALID,80.5839,VALID,0,VALID,25.0469,VALID,346,VALID,0.891016,
2010-01-22, 02:29:04,VALID,1004.86,VALID,0,VALID,80.4465,VALID,0,VALID,25.0839,VALID,20,VALID,0.410937,
2010-01-22, 02:30:04,VALID,1004.88,VALID,0,VALID,80.5762,VALID,0.100563,VALID,25.0644,VALID,355,VALID,0.671484,
2010-01-22, 02:31:04,VALID,1004.9,VALID,0,VALID,80.4771,VALID,0.100563,VALID,25.045,VALID,347,VALID,0.825781,
2010-01-22, 02:32:04,VALID,1004.89,VALID,0,VALID,80.6449,VALID,0,VALID,25.0236,VALID,340,VALID,0.928516,
2010-01-22, 02:33:04,VALID,1004.9,VALID,0,VALID,80.9577,VALID,0.100563,VALID,24.9847,VALID,358,VALID,0.954297,
2010-01-22, 02:34:04,VALID,1004.92,VALID,0,VALID,81.2781,VALID,0,VALID,24.9671,VALID,338,VALID,0.573828,
2010-01-22, 02:35:04,VALID,1004.91,VALID,0,VALID,81.0416,VALID,0,VALID,24.9282,VALID,339,VALID,0.878516,
2010-01-22, 02:36:04,VALID,1004.93,VALID,0,VALID,81.156,VALID,0.100563,VALID,24.9476,VALID,344,VALID,0.605469,
2010-01-22, 02:37:04,VALID,1004.91,VALID,0,VALID,81.2094,VALID,0,VALID,24.9282,VALID,349,VALID,1.12617,
2010-01-22, 02:38:04,VALID,1004.92,VALID,0,VALID,81.1331,VALID,0,VALID,24.9282,VALID,340,VALID,0.371875,
2010-01-22, 02:39:04,VALID,1004.91,VALID,0,VALID,81.2094,VALID,0,VALID,24.93,VALID,350,VALID,1.06211,
2010-01-22, 02:40:04,VALID,1004.87,VALID,0,VALID,81.1942,VALID,0.100563,VALID,24.9087,VALID,342,VALID,1.05547,
2010-01-22, 02:41:04,VALID,1004.88,VALID,0,VALID,81.7435,VALID,0,VALID,24.8892,VALID,357,VALID,0.882813,
2010-01-22, 02:42:04,VALID,1004.88,VALID,0,VALID,81.5527,VALID,0,VALID,24.8697,VALID,346,VALID,0.525,
2010-01-22, 02:43:04,VALID,1004.89,VALID,0,VALID,81.7282,VALID,0.100563,VALID,24.8289,VALID,352,VALID,1.1957,
2010-01-22, 02:44:04,VALID,1004.88,VALID,0,VALID,81.6672,VALID,0,VALID,24.8132,VALID,337,VALID,0.768359,
2010-01-22, 02:45:04,VALID,1004.87,VALID,0,VALID,81.8426,VALID,0,VALID,24.8132,VALID,344,VALID,0.641797,
2010-01-22, 02:46:04,VALID,1004.87,VALID,0,VALID,81.9189,VALID,0,VALID,24.8327,VALID,341,VALID,0.787109,
2010-01-22, 02:47:04,VALID,1004.88,VALID,0,VALID,81.8808,VALID,0,VALID,24.8113,VALID,360,VALID,0.769531,
2010-01-22, 02:48:04,VALID,1004.83,VALID,0,VALID,81.6672,VALID,0,VALID,24.8327,VALID,276,VALID,1.03477,
2010-01-22, 02:49:04,VALID,1004.85,VALID,0,VALID,81.5298,VALID,0,VALID,24.8716,VALID,358,VALID,1.16719,
2010-01-22, 02:50:04,VALID,1004.83,VALID,0,VALID,81.4688,VALID,0,VALID,24.8911,VALID,344,VALID,0.827344,
2010-01-22, 02:51:04,VALID,1004.83,VALID,0,VALID,81.3544,VALID,0,VALID,24.9106,VALID,352,VALID,0.330469,
2010-01-22, 02:52:04,VALID,1004.81,VALID,0,VALID,81.301,VALID,0,VALID,24.93,VALID,4,VALID,0.632422,
2010-01-22, 02:53:04,VALID,1004.83,VALID,0,VALID,81.5298,VALID,0,VALID,24.9282,VALID,288,VALID,0.0421875,
2010-01-22, 02:54:04,VALID,1004.83,VALID,0,VALID,81.3239,VALID,0,VALID,24.93,VALID,290,VALID,0.937109,
2010-01-22, 02:55:04,VALID,1004.82,VALID,0,VALID,81.3162,VALID,0,VALID,24.9514,VALID,333,VALID,0.859766,
2010-01-22, 02:56:04,VALID,1004.85,VALID,0,VALID,81.2857,VALID,0,VALID,24.9087,VALID,302,VALID,0.3375,
2010-01-22, 02:57:04,VALID,1004.89,VALID,0,VALID,81.3086,VALID,0,VALID,24.9087,VALID,302,VALID,0.0574219,
2010-01-22, 02:58:04,VALID,1004.88,VALID,0,VALID,81.4764,VALID,0,VALID,24.9106,VALID,302,VALID,0.309375,
2010-01-22, 02:59:04,VALID,1004.88,VALID,0,VALID,81.5451,VALID,0,VALID,24.8697,VALID,302,VALID,0.248047,
2010-01-22, 03:00:04,VALID,1004.86,VALID,0,VALID,81.4917,VALID,0,VALID,24.8911,VALID,330,VALID,0.94375,
2010-01-22, 03:01:04,VALID,1004.84,VALID,0,VALID,81.5375,VALID,0,VALID,24.8716,VALID,29,VALID,0.292969,
2010-01-22, 03:02:04,VALID,1004.84,VALID,0,VALID,81.5375,VALID,0,VALID,24.9106,VALID,288,VALID,0.700391,
2010-01-22, 03:03:04,VALID,1004.83,VALID,0,VALID,81.5756,VALID,0,VALID,24.8892,VALID,290,VALID,0.479688,
2010-01-22, 03:04:04,VALID,1004.87,VALID,0,VALID,81.5451,VALID,0,VALID,24.93,VALID,289,VALID,0.326562,
2010-01-22, 03:05:04,VALID,1004.84,VALID,0,VALID,81.568,VALID,0,VALID,24.8892,VALID,288,VALID,0.617969,
2010-01-22, 03:06:04,VALID,1004.9,VALID,0,VALID,81.7053,VALID,0,VALID,24.8697,VALID,290,VALID,0.422266,
2010-01-22, 03:07:04,VALID,1004.89,VALID,0,VALID,81.7663,VALID,0,VALID,24.8911,VALID,243,VALID,0.299609,
2010-01-22, 03:08:04,VALID,1004.9,VALID,0,VALID,81.8579,VALID,0,VALID,24.8503,VALID,193,VALID,0.645703,
2010-01-22, 03:09:04,VALID,1004.88,VALID,0,VALID,82.1707,VALID,0,VALID,24.8308,VALID,249,VALID,0.522266,
2010-01-22, 03:10:04,VALID,1004.9,VALID,0,VALID,82.3766,VALID,0,VALID,24.8327,VALID,250,VALID,0.19375,
2010-01-22, 03:11:04,VALID,1004.89,VALID,0,VALID,82.1783,VALID,0,VALID,24.7724,VALID,257,VALID,0.309766,
2010-01-22, 03:12:04,VALID,1004.88,VALID,0,VALID,82.4301,VALID,0,VALID,24.7743,VALID,321,VALID,0.191797,
2010-01-22, 03:13:04,VALID,1004.85,VALID,0,VALID,82.5521,VALID,0,VALID,24.7548,VALID,321,VALID,0.342578,
2010-01-22, 03:14:04,VALID,1004.87,VALID,0,VALID,82.4758,VALID,0,VALID,24.7353,VALID,333,VALID,0.559375,
2010-01-22, 03:15:04,VALID,1004.84,VALID,0,VALID,82.4453,VALID,0,VALID,24.7159,VALID,343,VALID,0.516016,
2010-01-22, 03:16:04,VALID,1004.81,VALID,0,VALID,82.4224,VALID,0,VALID,24.7159,VALID,340,VALID,0.482031,
2010-01-22, 03:17:04,VALID,1004.8,VALID,0,VALID,82.4987,VALID,0,VALID,24.7159,VALID,325,VALID,0.482031,
2010-01-22, 03:18:04,VALID,1004.76,VALID,0,VALID,82.5216,VALID,0,VALID,24.6945,VALID,358,VALID,0.4625,
2010-01-22, 03:19:04,VALID,1004.76,VALID,0,VALID,82.6513,VALID,0,VALID,24.6945,VALID,358,VALID,0.269922,
2010-01-22, 03:20:04,VALID,1004.71,VALID,0,VALID,82.6818,VALID,0,VALID,24.6964,VALID,357,VALID,0.554688,
2010-01-22, 03:21:04,VALID,1004.68,VALID,0,VALID,83.0556,VALID,0,VALID,24.6769,VALID,17,VALID,0.741406,
2010-01-22, 03:22:04,VALID,1004.68,VALID,0,VALID,83.3608,VALID,0,VALID,24.599,VALID,17,VALID,0.574219,
2010-01-22, 03:23:04,VALID,1004.63,VALID,0,VALID,83.521,VALID,0,VALID,24.5406,VALID,17,VALID,0.134375,
2010-01-22, 03:24:04,VALID,1004.62,VALID,0,VALID,83.788,VALID,0,VALID,24.4822,VALID,36,VALID,0.320313,
2010-01-22, 03:25:04,VALID,1004.63,VALID,0,VALID,83.9787,VALID,0,VALID,24.4628,VALID,333,VALID,0.610547,
2010-01-22, 03:26:04,VALID,1004.67,VALID,0,VALID,83.7804,VALID,0,VALID,24.4609,VALID,329,VALID,0.624609,
2010-01-22, 03:27:04,VALID,1004.67,VALID,0,VALID,83.8261,VALID,0,VALID,24.4804,VALID,345,VALID,0.746875,
2010-01-22, 03:28:04,VALID,1004.65,VALID,0,VALID,83.727,VALID,0,VALID,24.4804,VALID,330,VALID,0.0582031,
2010-01-22, 03:29:04,VALID,1004.67,VALID,0,VALID,83.7727,VALID,0,VALID,24.5017,VALID,310,VALID,0.480078,
2010-01-22, 03:30:04,VALID,1004.66,VALID,0,VALID,83.582,VALID,0,VALID,24.5017,VALID,310,VALID,0.155078,
2010-01-22, 03:31:04,VALID,1004.7,VALID,0,VALID,83.4905,VALID,0,VALID,24.4998,VALID,310,VALID,0.359375,
2010-01-22, 03:32:04,VALID,1004.69,VALID,0,VALID,83.4371,VALID,0,VALID,24.5212,VALID,310,VALID,0,
2010-01-22, 03:33:04,VALID,1004.71,VALID,0,VALID,83.5362,VALID,0,VALID,24.5212,VALID,310,VALID,0.0949219,
2010-01-22, 03:34:04,VALID,1004.73,VALID,0,VALID,83.5744,VALID,0,VALID,24.5212,VALID,310,VALID,0.572656,
2010-01-22, 03:35:04,VALID,1004.73,VALID,0,VALID,83.4676,VALID,0,VALID,24.5212,VALID,309,VALID,0.569922,
2010-01-22, 03:36:04,VALID,1004.75,VALID,0,VALID,83.4752,VALID,0,VALID,24.5212,VALID,302,VALID,0.364062,
2010-01-22, 03:37:04,VALID,1004.71,VALID,0,VALID,83.46,VALID,0,VALID,24.5212,VALID,302,VALID,0.100391,
2010-01-22, 03:38:04,VALID,1004.72,VALID,0,VALID,83.5057,VALID,0,VALID,24.5212,VALID,302,VALID,0.189453,
2010-01-22, 03:39:04,VALID,1004.74,VALID,0,VALID,83.4828,VALID,0,VALID,24.5212,VALID,303,VALID,0,
2010-01-22, 03:40:04,VALID,1004.73,VALID,0,VALID,83.6888,VALID,0,VALID,24.4785,VALID,303,VALID,0.183594,
2010-01-22, 03:41:04,VALID,1004.78,VALID,0,VALID,83.5668,VALID,0,VALID,24.4609,VALID,285,VALID,1.05313,
2010-01-22, 03:42:04,VALID,1004.8,VALID,0,VALID,83.5668,VALID,0,VALID,24.5017,VALID,281,VALID,0.549609,
2010-01-22, 03:43:04,VALID,1004.81,VALID,0,VALID,83.5591,VALID,0,VALID,24.4804,VALID,282,VALID,0.318359,
2010-01-22, 03:44:04,VALID,1004.82,VALID,0,VALID,83.5439,VALID,0,VALID,24.5212,VALID,292,VALID,0.307031,
2010-01-22, 03:45:04,VALID,1004.8,VALID,0,VALID,83.6812,VALID,0,VALID,24.523,VALID,292,VALID,0,